Hays, KS

5:27 AM CDT on April 28, 2017 (GMT -0500)
Hays Regional

Weather History for KHYS - January, 2014

Change the Weather History Date:

Thursday, January 16, 2014

  Actual Average Record
Temperature  
Mean Temperature 39 °F -  
Max Temperature 50 °F 41 °F 62 °F (2015)
Min Temperature 28 °F 17 °F 0 °F (2005)
Degree Days  
Heating Degree Days 26    
Moisture  
Dew Point 14 °F    
Average Humidity 38    
Maximum Humidity 60    
Minimum Humidity 16    
Precipitation  
Precipitation 0.00 in - - ()
Sea Level Pressure  
Sea Level Pressure 30.05 in    
Wind  
Wind Speed 18 mph (NW)    
Max Wind Speed 39 mph    
Max Gust Speed 51 mph    
Visibility 10 miles    
Events      
Averages and records for this station are not official NWS values.
T = Trace of Precipitation, MM = Missing Value Source: NWS Daily Summary

Daily Weather History Graph

Daily Weather History Graph

Search for Another Location

Airport or City:

Trip Planner

Search our weather history database for the weather conditions in past years. The results will help you decide how hot, cold, wet, or windy it might be!

Date:

Astronomy

Jan. 16, 2014 Rise Set
Actual Time 7:53 AM CST 5:40 PM CST
Civil Twilight 7:24 AM CST 6:09 PM CST
Nautical Twilight 6:51 AM CST 6:42 PM CST
Astronomical Twilight 6:19 AM CST 7:14 PM CST
Moon 6:32 PM CST (1/16) 7:49 AM CST (1/16)
Length of Visible Light 10h 45m
Length of Day
9h 46m
Full, 100% of the Moon is Illuminated
Jan 16
Full
Jan 23
Last Quarter
Jan 30
New
Feb 6
First Quarter
Feb 14
Full

Hourly Weather History & Observations

Time (CST) Temp. Windchill Dew Point Humidity Pressure Visibility Wind Dir Wind Speed Gust Speed Precip Events Conditions
12:15 AM 35.6 °F 29.2 °F 19.4 °F 52% 29.91 in 10.0 mi WNW 8.1 mph - N/A   Clear
12:35 AM 35.6 °F 28.6 °F 19.4 °F 52% 29.92 in 10.0 mi WNW 9.2 mph - N/A   Clear
12:55 AM 35.6 °F 27.5 °F 21.2 °F 56% 29.92 in 10.0 mi WNW 11.5 mph - N/A   Clear
1:15 AM 37.4 °F 30.8 °F 19.4 °F 48% 29.92 in 10.0 mi NW 9.2 mph - N/A   Clear
1:35 AM 35.6 °F 27.5 °F 19.4 °F 52% 29.92 in 10.0 mi NW 11.5 mph - N/A   Clear
1:55 AM 35.6 °F 27.1 °F 19.4 °F 52% 29.92 in 10.0 mi WNW 12.7 mph - N/A   Clear
2:15 AM 37.4 °F 28.2 °F 19.4 °F 48% 29.94 in 10.0 mi NW 16.1 mph - N/A   Clear
2:35 AM 37.4 °F 28.9 °F 19.4 °F 48% 29.95 in 10.0 mi NNW 13.8 mph - N/A   Clear
2:55 AM 39.2 °F 31.2 °F 21.2 °F 49% 29.94 in 10.0 mi NW 13.8 mph - N/A   Clear
3:15 AM 39.2 °F 31.6 °F 21.2 °F 49% 29.95 in 10.0 mi NNW 12.7 mph - N/A   Clear
3:35 AM 37.4 °F 29.8 °F 19.4 °F 48% 29.95 in 10.0 mi NW 11.5 mph - N/A   Clear
3:55 AM 37.4 °F 28.9 °F 19.4 °F 48% 29.96 in 10.0 mi NW 13.8 mph - N/A   Clear
4:15 AM 35.6 °F 27.1 °F 19.4 °F 52% 29.97 in 10.0 mi NW 12.7 mph - N/A   Clear
4:35 AM 33.8 °F 24.8 °F 19.4 °F 56% 29.98 in 10.0 mi NW 12.7 mph - N/A   Clear
4:55 AM 33.8 °F 23.9 °F 19.4 °F 56% 29.99 in 10.0 mi NNW 15.0 mph - N/A   Clear
5:15 AM 35.6 °F 25.2 °F 21.2 °F 56% 30.01 in 10.0 mi NNW 18.4 mph - N/A   Clear
5:35 AM 37.4 °F 28.9 °F 21.2 °F 52% 30.02 in 10.0 mi NW 13.8 mph - N/A   Clear
5:55 AM 33.8 °F 24.8 °F 19.4 °F 56% 30.02 in 10.0 mi WNW 12.7 mph - N/A   Clear
6:15 AM 33.8 °F 24.3 °F 21.2 °F 60% 30.01 in 10.0 mi West 13.8 mph - N/A   Clear
6:35 AM 35.6 °F 26.2 °F 21.2 °F 56% 30.02 in 10.0 mi WNW 15.0 mph - N/A   Scattered Clouds
6:55 AM 37.4 °F 27.5 °F 23.0 °F 56% 30.01 in 10.0 mi WNW 18.4 mph - N/A   Mostly Cloudy
7:15 AM 41.0 °F 30.7 °F 23.0 °F 49% 30.03 in 10.0 mi NW 25.3 mph 31.1 mph N/A   Overcast
7:35 AM 42.8 °F 34.0 °F 21.2 °F 42% 30.04 in 10.0 mi NW 20.7 mph 28.8 mph N/A   Scattered Clouds
7:55 AM 42.8 °F 34.0 °F 21.2 °F 42% 30.04 in 10.0 mi NW 20.7 mph 29.9 mph N/A   Clear
8:15 AM 41.0 °F 32.2 °F 21.2 °F 45% 30.05 in 10.0 mi NW 18.4 mph 28.8 mph N/A   Clear
8:35 AM 41.0 °F 31.6 °F 21.2 °F 45% 30.06 in 10.0 mi WNW 20.7 mph 25.3 mph N/A   Clear
8:55 AM 41.0 °F 32.2 °F 21.2 °F 45% 30.07 in 10.0 mi WNW 18.4 mph - N/A   Clear
9:15 AM 41.0 °F 31.4 °F 21.2 °F 45% 30.07 in 10.0 mi WNW 21.9 mph 27.6 mph N/A   Clear
9:35 AM 42.8 °F 34.0 °F 21.2 °F 42% 30.08 in 10.0 mi NW 20.7 mph 29.9 mph N/A   Clear
9:55 AM 42.8 °F 33.5 °F 21.2 °F 42% 30.08 in 10.0 mi WNW 23.0 mph 32.2 mph N/A   Clear
10:15 AM 42.8 °F 33.5 °F 21.2 °F 42% 30.08 in 10.0 mi NW 23.0 mph 32.2 mph N/A   Clear
10:35 AM 44.6 °F 35.3 °F 21.2 °F 39% 30.08 in 10.0 mi NW 26.5 mph 33.4 mph N/A   Clear
10:55 AM 46.4 °F 37.5 °F 19.4 °F 34% 30.08 in 10.0 mi NW 27.6 mph 34.5 mph N/A   Clear
11:15 AM 46.4 °F 37.0 °F 17.6 °F 32% 30.08 in 10.0 mi NW 31.1 mph 35.7 mph N/A   Clear
11:35 AM 46.4 °F 37.2 °F 15.8 °F 29% 30.07 in 10.0 mi NW 29.9 mph 39.1 mph N/A   Clear
11:55 AM 46.4 °F 37.5 °F 15.8 °F 29% 30.05 in 10.0 mi NW 27.6 mph 35.7 mph N/A   Clear
12:15 PM 48.2 °F - 15.8 °F 27% 30.04 in 10.0 mi NW 24.2 mph 39.1 mph N/A   Clear
12:35 PM 48.2 °F - 14.0 °F 25% 30.03 in 10.0 mi NW 33.4 mph 40.3 mph N/A   Clear
12:55 PM 50.0 °F - 12.2 °F 22% 30.02 in 10.0 mi NNW 29.9 mph 41.4 mph N/A   Clear
1:15 PM 50.0 °F - 10.4 °F 20% 30.01 in 10.0 mi NW 38.0 mph 43.7 mph N/A   Clear
1:35 PM 50.0 °F - 10.4 °F 20% 30.01 in 9.0 mi NW 38.0 mph 48.3 mph N/A   Partly Cloudy
1:55 PM 50.0 °F - 8.6 °F 19% 30.00 in 8.0 mi NW 39.1 mph 47.2 mph N/A   Scattered Clouds
2:15 PM 50.0 °F - 6.8 °F 17% 30.00 in 9.0 mi NNW 29.9 mph 44.9 mph N/A   Mostly Cloudy
2:35 PM 50.0 °F - 6.8 °F 17% 30.00 in 6.0 mi NW 38.0 mph 50.6 mph N/A   Overcast
2:55 PM 48.2 °F - 5.0 °F 17% 30.00 in 8.0 mi NW 34.5 mph 44.9 mph N/A   Overcast
3:15 PM 48.2 °F - 3.2 °F 16% 30.01 in 8.0 mi NNW 34.5 mph 44.9 mph N/A   Overcast
3:35 PM 48.2 °F - 3.2 °F 16% 30.01 in 5.0 mi NW 39.1 mph 49.5 mph N/A   Overcast
3:55 PM 48.2 °F - 3.2 °F 16% 30.02 in 10.0 mi NW 33.4 mph 44.9 mph N/A   Overcast
4:15 PM 48.2 °F - 3.2 °F 16% 30.03 in 10.0 mi NW 36.8 mph 42.6 mph N/A   Overcast
4:35 PM 46.4 °F 36.5 °F 3.2 °F 17% 30.04 in 10.0 mi NW 34.5 mph 44.9 mph N/A   Overcast
4:55 PM 46.4 °F 36.4 °F 5.0 °F 18% 30.05 in 10.0 mi NNW 35.7 mph 42.6 mph N/A   Overcast
5:15 PM 44.6 °F 34.4 °F 3.2 °F 18% 30.05 in 10.0 mi NNW 32.2 mph 43.7 mph N/A   Overcast
5:35 PM 44.6 °F 34.6 °F 3.2 °F 18% 30.06 in 10.0 mi NNW 31.1 mph 40.3 mph N/A   Scattered Clouds
5:55 PM 42.8 °F 32.7 °F 3.2 °F 19% 30.07 in 10.0 mi NNW 27.6 mph 34.5 mph N/A   Clear
6:15 PM 42.8 °F 33.8 °F 6.8 °F 23% 30.09 in 10.0 mi NNW 21.9 mph 29.9 mph N/A   Clear
6:35 PM 41.0 °F 31.6 °F 6.8 °F 24% 30.10 in 10.0 mi North 20.7 mph 31.1 mph N/A   Clear
6:55 PM 37.4 °F 27.5 °F 8.6 °F 30% 30.11 in 10.0 mi North 18.4 mph - N/A   Clear
7:15 PM 37.4 °F 28.2 °F 10.4 °F 33% 30.13 in 10.0 mi North 16.1 mph - N/A   Clear
7:35 PM 35.6 °F 25.9 °F 10.4 °F 35% 30.13 in 10.0 mi NNW 16.1 mph - N/A   Clear
7:55 PM 35.6 °F 25.5 °F 10.4 °F 35% 30.15 in 10.0 mi NNW 17.3 mph 21.9 mph N/A   Clear
8:15 PM 33.8 °F 22.5 °F 10.4 °F 38% 30.16 in 10.0 mi NNW 19.6 mph 26.5 mph N/A   Clear
8:35 PM 33.8 °F 22.8 °F 12.2 °F 41% 30.17 in 10.0 mi NNW 18.4 mph 26.5 mph N/A   Clear
8:55 PM 33.8 °F 22.5 °F 12.2 °F 41% 30.18 in 10.0 mi NNW 19.6 mph 25.3 mph N/A   Clear
9:15 PM 33.8 °F 22.2 °F 12.2 °F 41% 30.19 in 10.0 mi NNW 20.7 mph 27.6 mph N/A   Clear
9:35 PM 33.8 °F 20.8 °F 12.2 °F 41% 30.20 in 10.0 mi NNW 26.5 mph 34.5 mph N/A   Clear
9:55 PM 33.8 °F 22.2 °F 10.4 °F 38% 30.20 in 10.0 mi NNW 20.7 mph 29.9 mph N/A   Clear
10:15 PM 32.0 °F 20.8 °F 10.4 °F 41% 30.21 in 10.0 mi NNW 17.3 mph 24.2 mph N/A   Clear
10:35 PM 30.2 °F 18.5 °F 10.4 °F 44% 30.21 in 10.0 mi NNW 17.3 mph 23.0 mph N/A   Clear
10:55 PM 30.2 °F 19.3 °F 10.4 °F 44% 30.21 in 10.0 mi NNW 15.0 mph - N/A   Clear
11:15 PM 30.2 °F 19.3 °F 10.4 °F 44% 30.22 in 10.0 mi NNW 15.0 mph - N/A   Clear
11:35 PM 28.4 °F 18.0 °F 10.4 °F 47% 30.22 in 10.0 mi NNW 12.7 mph 18.4 mph N/A   Clear
11:55 PM 28.4 °F 19.1 °F 10.4 °F 47% 30.22 in 10.0 mi NNW 10.4 mph - N/A   Clear